sat.trackr.live / text

‹ back to catalog

KINEIS-2A

NORAD 62932 · 2025-028E

PAYLOAD ACTIVE UNKNOWN

§ Identity

Operator
Country
FR
Launch date
2025-02-08
Launch site
RLLB
Launch vehicle
Mass (kg)
RCS (m²)

External: N2YO · Heavens-Above · Gunter

§ Orbital elements

Epoch: 2026-05-25T03:21:56.894976Z

Period
97.74 min
Inclination
98.1311°
Eccentricity
0.0003500
Mean motion
14.73312382 rev/d
Perigee alt
648.1 km
Apogee alt
653.0 km
Semi-major
7,028.7 km
B*
1.8905e-4
RAAN
200.4763°
Arg perigee
226.0928°
Mean anomaly
133.9990°
Rev number
6,921

§ Raw data

KINEIS-2A1 62932U 25028E   26145.14024184  .00001172  00000+0  18905-3 0  99972 62932  98.1311 200.4763 0003500 226.0928 133.9990 14.73312382 69212

JSON: /api/v1/satellites/62932 · /tle

For live sub-satellite position, see the globe view (requires WebGL).

§ Visibility from observer

Set your observer location to see the next 7 days of passes ≥ 10°. The values pass through the URL so the page stays shareable.

No JS? Fill the form by hand. The geolocation button needs JavaScript.

§ Radio — SatNOGS DB

ModeDescriptionDownlinkUplink
BPSK S-band telemetry 2.265 GHz
FM Telemetry 400.645 MHz

2 transmitters · refreshed weekly from db.satnogs.org